Weather in Slovenj Gradec

Slovenia     46°30′27″N   15°05′11″E
В апреле 2022 года жителям России запретили посещать сайт meteo.paraplan.net по решению Генеральной прокуратуры. Аудитория сайта уменьшилась в 10 раз. Владельцы сайта не видят смысла в поддержке погодного сервера в таких условиях. Сайт будет закрыт в октябре.
temp.,
°C
wind,
m/s
gust,
m/s
humid.,
%
clouds,
%
prec.,
mm/h
press.,
hPa
HPBL,
m
30 september, fri
fri3023:00+8n1299100 3.4 1005119
02:00+8nnw1299100 7.6 1006127
05:00+8nnw1199100 2.6 100681
08:00+8nw1299100 6.4 100889
11:00+12w118699 0.4 1010562
14:00+14sse2378100 0.7 1011661
17:00+12s2496100 1.4 1012153
20:00+11sse239997 2.3 1013115
1 october, sat
sat123:00+11s1199100 0.6 101478
02:00+11sse1299100 1.3 1014118
05:00+11sw019996 0.1 101446
08:00+11ssw0199100 1.9 101599
11:00+12ssw0298100 0.1 1015187
14:00+14s128780 0.4 1013406
17:00+15ssw1282100 0.1 1012263
20:00+11ssw1196100 0.3 101421
2 october, sun
sun223:00+9nw11969 0.1 101610
02:00+9sw119720 0.1 101827
05:00+7wnw119744 0.0 102017
08:00+8nw129726 0.0 102275
11:00+13nnw227266 0.0 1022519
14:00+17nnw125313 0.0 10211097
17:00+16sw126540 0.1 1020502
20:00+10sse119231 0.2 102215
3 october, mon
mon323:00+9sw119492 0.0 102310
02:00+9nw2195100 0.0 102221
05:00+9nw119599 0.0 102237
08:00+9nw1292100 0.0 102275
11:00+13ene007274 0.0 1021392
14:00+17ese115847 0.0 10201157
17:00+15ese1277100 0.1 1020361
20:00+11n119631 1.6 102226
4 october, tue
tue423:00+9wnw11961 0.3 102310
02:00+8wnw11969 0.3 102311
05:00+7nw119512 0.0 102214
08:00+8nw11945 0.0 102239
11:00+14wnw01748 0.0 1022519
14:00+17sse125971 0.0 10201147
17:00+16s2370100 0.0 1019420
20:00+11s1186100 0.0 102113